Regional Weather Roundup
Issued by NWS

Home | Current Version | Previous Version | Text Only | Print | Product List | Glossary On
Versions: 1 2 3 4 5 6 7 8 9 10 11 12 13 14 15 16 17 18 19 20 21 22 23 24 25 26 27 28 29 30 31 32 33 34 35 36 37 38 39 40 41 42 43 44 45 46 47 48 49 50
000
ASUS43 KLMK 222010
RWRKY
KENTUCKY REGIONAL WEATHER ROUNDUP
NATIONAL WEATHER SERVICE LOUISVILLE KY
300 PM EST WED NOV 22 2017

NOTE "FAIR" INDICATES FEW OR NO CLOUDS BELOW 12,000 FEET
WITH NO SIGNIFICANT WEATHER AND/OR OBSTRUCTIONS TO VISIBILITY.

KYZ001>023-026-027-061>063-070>075-222100-
WESTERN AND SOUTH CENTRAL KENTUCKY

CITY           SKY/WX    TMP DP  RH WIND       PRES   REMARKS
PADUCAH        SUNNY     45  20  36 NE7       30.28F
HENDERSON      SUNNY     41  22  46 N7        30.30F
OWENSBORO      SUNNY     42  22  44 N7        30.29F
HOPKINSVILLE   SUNNY     44  23  44 N8        30.25F
BOWLING GREEN  SUNNY     46  25  43 N8        30.26F
GLASGOW        SUNNY     46  24  43 N7        30.23F
$$

KYZ024-025-028>034-038-045-046-053-222100-
NORTH CENTRAL KENTUCKY

CITY           SKY/WX    TMP DP  RH WIND       PRES   REMARKS
LOUISVILLE/SDF MOSUNNY   44  24  45 VRB3      30.27F
LOUISVILLE/LOU SUNNY     43  25  49 CALM      30.28F
FORT KNOX      SUNNY     42  22  45 N6        30.24F
$$

KYZ035>037-039>044-047>052-055>060-089>105-222100-
NORTHEAST KENTUCKY

CITY           SKY/WX    TMP DP  RH WIND       PRES   REMARKS
LEXINGTON      SUNNY     43  25  49 VRB6      30.24F
COVINGTON      MOSUNNY   40  25  55 NW7       30.26F
FRANKFORT      SUNNY     43  21  41 N5        30.24F
$$

KYZ054-064>069-076>088-106>120-222100-
SOUTHEAST KENTUCKY

CITY           SKY/WX    TMP DP  RH WIND       PRES   REMARKS
JACKSON        SUNNY     44  25  47 VRB3      30.20S
LONDON         SUNNY     45  24  43 NE6       30.20F
SOMERSET       SUNNY     43  27  52 N6        30.23F
MIDDLESBORO    SUNNY     48  27  44 N9        30.17F
MONTICELLO     CLEAR     44  27  51 N9        30.23F
$$





USA.gov is the U.S. government's official web portal to all federal, state and local government web resources and services.